Location: *
(36.3433°S, 149.7907°W)
Time: 02:45:45
(UTC+00:00)

Daily predictions for brighter satellites

Satellite Brightness Start Highest point End
(mag) Time Altitude Azimuth Time Altitude Azimuth Time Altitude Azimuth
Cosmos 1818 3.6 04:16:58 10° NNW 04:22:20 83° ENE 04:27:46 10° SSE
ASTEX 1 3.8 04:23:34 10° N 04:28:34 73° W 04:33:38 10° S
Radarsat Rocket 4.4 04:24:20 10° SSE 04:30:06 45° ENE 04:36:18 10° N
FALCON 9 DEB 3.4 04:27:21 10° NNW 04:30:19 39° NE 04:33:21 10° ESE
IRIDIUM 114 4.5 04:25:31 10° S 04:30:43 54° E 04:35:49 10° NNE
USA 276 3.4 04:28:02 10° WNW 04:30:52 37° SSW 04:33:44 10° SE
Milstar 3 4.0 04:23:49 10° W 04:31:31 36° NNW 04:37:34 10° NE
Meteor 1-15 Rocket 4.3 04:28:17 10° S 04:34:13 77° E 04:39:57 10° NNE
Cosmos 1470 3.3 04:31:57 10° S 04:35:44 39° E 04:39:26 10° NNE
Cosmos 2333 Rocket 2.4 04:30:20 10° SSW 04:35:59 53° ESE 04:41:36 10° NE
Cosmos 2297 Rocket 3.6 04:33:28 10° NE 04:36:31 15° E 04:39:35 10° ESE
Cosmos 1486 Rocket 4.0 04:33:57 10° SSW 04:39:13 68° ESE 04:44:27 10° NNE
Cosmos 1092 Rocket 4.2 04:33:36 10° S 04:39:48 50° E 04:45:57 10° NNE
IRIDIUM 103 4.3 04:34:35 10° S 04:39:52 67° E 04:45:05 10° N
Cosmos 2219 Rocket 2.7 04:35:29 10° S 04:40:49 40° ESE 04:46:07 10° NE
DELTA 2 R/B (1) 3.6 04:37:50 10° WSW 04:43:28 81° SSE 04:48:31 13° ENE
H-2A R/B 3.9 04:40:21 10° S 04:44:48 34° WSW 04:49:14 10° NW
Cosmos 2034 Rocket 4.4 04:38:39 10° NNW 04:44:54 70° W 04:51:10 10° S
Cosmos 1703 Rocket 4.0 04:40:35 10° NNW 04:44:59 70° W 04:49:31 10° S
Delta 2 Rocket 4.2 04:41:54 10° W 04:47:29 71° NNW 04:52:10 14° ENE
SL-08 RB Rocket 3.8 04:43:50 10° S 04:48:24 85° W 04:52:54 10° NNW
Lacrosse 4 Rocket 3.8 04:45:13 10° SW 04:48:35 24° WNW 04:51:53 10° NNW
Alouette 2 Rocket 3.8 04:44:51 10° N 04:50:25 65° E 04:54:26 10° SSE
SL-27 R/B 3.2 04:49:32 10° NNW 04:52:43 51° WSW 04:55:57 10° S
Cosmos 1674 2.8 04:50:54 10° NNE 04:54:27 46° E 04:58:02 10° SSE
Cosmos 2237 Rocket 4.0 04:55:08 10° SSE 04:58:04 14° SE 04:59:57 12° ESE
IRIDIUM 106 4.5 04:52:51 10° S 04:58:10 81° W 05:03:24 10° N
Centaur D AC-28 2.8 04:54:41 10° WNW 04:58:53 30° N 05:01:05 17° ENE
COBE Rocket 4.5 04:54:16 10° SSE 04:59:10 38° E 05:03:56 10° NNE
In-Cosmos 22 4.1 04:54:05 10° N 04:59:28 72° E 05:05:04 10° SSE
Okean O Rocket 2.8 04:56:27 10° SE 04:59:45 20° E 05:01:19 17° ENE
CZ-4C R/B 2.9 04:56:40 10° NNE 05:00:04 68° ESE 05:03:35 10° S
Cosmos 2360 Rocket 2.9 04:55:10 10° SSW 05:00:47 57° WNW 05:06:19 10° N
SL-8 R/B 3.7 04:56:35 10° NW 05:01:26 82° NE 05:06:19 10° SE
BREEZE-M R/B 3.8 04:59:17 10° NW 05:03:45 81° NE 05:16:02 10° SE
COSMOS 2428 3.1 05:02:42 10° S 05:08:11 44° ESE 05:11:55 19° NE
DEBRIS 1.9 05:06:13 10° NW 05:08:33 52° NE 05:09:17 34° E
Cosmos 1437 Rocket 4.3 05:05:31 10° SSW 05:09:20 39° W 05:13:03 10° NNW
HJ-1C 4.4 05:06:51 10° SE 05:08:53 24° ESE 05:08:53 24° ESE
Cosmos 1300 Rocket 3.7 05:05:30 10° S 05:09:47 49° E 05:13:28 13° NNE
CZ-4C R/B 3.7 05:02:42 10° N 05:10:04 32° ENE 05:16:44 10° SE
Cosmos 1782 Rocket 3.6 05:06:00 10° S 05:10:28 85° W 05:14:50 10° N
Meteor 1-21 4.2 05:04:57 10° N 05:10:35 83° E 05:16:16 10° S
Cosmos 1241 Rocket 4.5 05:06:23 10° SSW 05:12:34 62° ESE 05:17:08 18° NE
Cosmos 1627 Rocket 4.5 05:09:25 10° S 05:15:49 88° E 05:22:03 10° N
YAOGAN 3 4.5 05:11:40 10° SSE 05:16:06 73° ENE 05:20:28 10° N
YAOGAN 1 2.9 05:12:00 10° SSE 05:16:09 40° E 05:20:14 10° NNE
KORONAS-FOTON 3.9 05:12:27 10° N 05:16:16 77° W 05:20:06 10° S
Okean 2 Rocket 4.1 05:13:50 10° SSE 05:17:38 26° ESE 05:17:58 26° E
GEOS 3 Rocket 3.8 05:13:49 11° NNE 05:19:00 78° WNW 05:24:20 10° SW
SJ 16-02 1.2 05:14:38 10° SSW 05:19:07 80° ESE 05:22:39 16° NNE
Cosmos 1777 Rocket 4.2 05:15:33 10° S 05:20:45 51° ESE 05:23:36 25° NE
SAR-Lupe-3 4.5 05:17:31 10° SSE 05:21:11 87° ENE 05:24:47 10° NNW
OAO 3 Rocket 4.2 05:18:50 10° NNW 05:22:48 27° NNE 05:23:23 26° NE
Okean 2 3.3 05:19:18 10° N 05:23:25 80° E 05:27:35 10° S
CZ-4B R/B 3.2 05:19:22 10° SSE 05:24:38 52° E 05:29:47 10° N
Cosmos 2279 Rocket 3.9 05:18:31 10° N 05:24:45 74° E 05:31:04 10° S
Cosmos 1707 4.4 05:22:56 10° NNW 05:26:32 36° W 05:30:12 10° S
Cosmos 2142 Rocket 4.4 05:22:25 10° N 05:28:34 78° E 05:34:46 10° S
Cosmos 1634 Rocket 4.5 05:23:34 10° NNW 05:29:46 64° W 05:36:06 10° S
Geosat 4.2 05:28:15 31° ENE 05:30:24 53° ESE 05:35:20 10° SSW
PAYLOAD B 4.2 05:24:54 10° SSE 05:30:36 88° ENE 05:36:12 10° NNW
PSLV R/B 4.3 05:32:20 42° E 05:32:57 46° ESE 05:37:02 10° S
Cosmos 1626 3.2 05:30:09 10° NNW 05:33:41 46° W 05:37:17 10° S
Cosmos 1503 Rocket 4.5 05:29:56 10° SSW 05:35:11 62° WNW 05:40:19 10° N
Aureole 3 Rocket 4.2 05:38:57 23° SE 05:38:57 23° SE 05:40:27 10° SSE
X-37B 0.8 05:34:33 10° WSW 05:37:03 60° W 05:37:03 60° W
Meteor 1-16 Rocket 4.3 05:32:27 10° S 05:37:42 50° ESE 05:39:19 38° NE
Lacrosse 5 rocket 3.4 05:39:35 10° W 05:42:34 23° SW 05:45:38 10° SSE
H-2A R/B 2.2 05:42:37 51° ENE 05:43:18 58° ESE 05:47:48 10° S
Cosmos 2151 Rocket 3.8 05:40:49 10° S 05:45:00 48° ESE 05:45:00 48° ESE
COSMOS 2455 4.4 05:40:47 10° SW 05:46:03 32° WNW 05:51:17 10° NNW
Meteor 2-10 Rocket 4.4 05:41:27 10° SSE 05:45:48 33° ESE 05:45:48 33° ESE
Cosmos 2322 4.1 05:41:57 10° SSW 05:47:38 63° WNW 05:51:44 19° N
BREEZE-M R/B 4.2 05:37:58 10° SW 05:49:47 82° SE 05:51:56 44° ENE
Cosmos 1758 4.0 05:48:28 10° SSW 05:52:24 53° W 05:54:22 26° NNW
Cosmos 1908 3.6 05:50:29 10° SSW 05:54:20 62° W 05:55:09 48° NNW
ATLAS 3B R/B 2.7 05:47:30 10° NNW 05:55:03 81° ENE 06:02:13 10° SSE
Cosmos 1607 3.9 05:49:46 10° SSW 05:56:11 73° ESE 05:57:57 49° NE
Sich 1 Rocket 3.6 05:55:21 10° S 05:59:55 79° W 06:00:41 60° NNW
Cosmos 1674 Rocket 3.5 06:01:40 83° N 06:01:51 89° E 06:06:24 10° S
Cosmos 2227 Rocket 3.0 06:07:50 36° SE 06:07:50 36° SE 06:11:17 10° SSE
SL-14 R/B 3.9 06:10:28 56° W 06:10:38 56° W 06:14:42 10° S
ATLAS 5 CENTAUR R/B 2.5 06:07:31 10° SSW 06:11:57 42° SSE 06:11:57 42° SSE
CZ-4 R/B 2.2 06:13:33 10° S 06:17:23 49° WSW 06:17:23 49° WSW
CZ-3 Stage 3 3.9 06:14:32 10° WNW 06:45:19 - E 06:16:34 36° NNW
Cosmos 2297 Rocket 2.5 06:14:18 10° NNW 06:19:54 64° WSW 06:25:34 10° SSE
Cosmos 1980 3.7 06:16:24 10° SSW 06:21:35 66° SSE 06:21:35 66° SSE
Cosmos 2219 Rocket 4.1 06:19:57 10° SW 06:24:28 25° WNW 06:28:45 11° NNW
DELTA 2 R/B (1) 4.5 06:24:31 10° W 06:29:17 39° NW 06:29:17 39° NW
Cosmos 1953 4.2 06:30:13 10° SSW 06:32:25 29° SSW 06:32:25 29° SSW
NOSS 3-1 (C) 4.3 06:25:17 10° NNW 06:37:26 42° ESE 06:42:38 10° SE
Okean O Rocket 3.4 06:32:13 10° S 06:36:05 30° WSW 06:38:46 16° WNW
Cosmos 1763 Rocket 4.1 06:35:33 48° WNW 06:36:31 56° WSW 06:41:46 10° S
Cosmos 1655 Rocket 4.0 06:30:10 10° S 06:36:39 81° W 06:37:01 78° NW
Cosmos 2237 Rocket 2.6 06:37:06 10° SSW 06:41:48 61° SSW 06:41:48 61° SSW
CZ-4C R/B 3.4 06:50:03 10° NW 06:58:32 60° SW 07:05:51 10° SSE
SL-16 R/B 4.0 07:17:29 10° SSW 07:19:50 25° S 07:19:50 25° S
